Weather History for Gwinn, MI

Change the Weather History Date:

Saturday, November 17, 2012

  Actual Average (KESC) Record (KESC)
Temperature  
Mean Temperature 34 °F -  
Max Temperature 47 °F 41 °F 57 °F (1958)
Min Temperature 23 °F 29 °F -1 °F (1959)
Degree Days  
Heating Degree Days 30    
Moisture  
Dew Point 27 °F    
Average Humidity 82    
Maximum Humidity 93    
Minimum Humidity 57    
Precipitation  
Precipitation 0.00 in - - ()
Sea Level Pressure  
Sea Level Pressure 30.41 in    
Wind  
Wind Speed 8 mph (SSW)    
Max Wind Speed 17 mph    
Max Gust Speed -    
Visibility 8 miles    
Events      
Averages and records for this station are not official NWS values.
T = Trace of Precipitation, MM = Missing Value Source: NWS Daily Summary

Daily Weather History Graph

Daily Weather History Graph

Search for Another Location

Airport:

Trip Planner

Search our weather history database for the weather conditions in past years. The results will help you decide how hot, cold, wet, or windy it might be!

Date:

Astronomy

Nov. 17, 2012 Rise Set
Actual Time 7:54 AM EST 5:14 PM EST
Civil Twilight 7:21 AM EST 5:47 PM EST
Nautical Twilight 6:44 AM EST 6:23 PM EST
Astronomical Twilight 6:09 AM EST 6:59 PM EST
Moon 11:39 AM EST (11/17) 9:24 PM EST (11/17)
Length of Visible Light 10h 25m
Length of Day
9h 19m
Waxing Crescent, 20% of the Moon is Illuminated
Nov 17
Waxing Crescent
Nov 20
First Quarter
Nov 28
Full
Dec 6
Last Quarter
Dec 13
New

Hourly Weather History & Observations

Time (EST) Temp. Windchill Dew Point Humidity Pressure Visibility Wind Dir Wind Speed Gust Speed Precip Events Conditions
12:16 AM 24.6 °F 17.7 °F 19.9 °F 82% 30.43 in 10.0 mi SSW 5.8 mph - N/A   Clear
12:36 AM 24.1 °F 17.0 °F 19.8 °F 84% 30.43 in 10.0 mi SSW 5.8 mph - N/A   Clear
12:55 AM 24.3 °F 17.3 °F 20.1 °F 84% 30.43 in 10.0 mi SSW 5.8 mph - N/A   Clear
1:16 AM 23.0 °F 18.4 °F 19.4 °F 86% 30.43 in 10.0 mi SW 3.5 mph - N/A   Clear
1:36 AM 23.9 °F 18.0 °F 19.9 °F 85% 30.43 in 10.0 mi SW 4.6 mph - N/A   Clear
1:55 AM 24.6 °F 16.7 °F 20.3 °F 84% 30.43 in 10.0 mi SSW 6.9 mph - N/A   Clear
2:16 AM 24.8 °F 19.1 °F 20.1 °F 82% 30.43 in 10.0 mi SW 4.6 mph - N/A   Clear
2:36 AM 23.9 °F 15.8 °F 19.6 °F 84% 30.44 in 10.0 mi SW 6.9 mph - N/A   Clear
2:55 AM 23.7 °F 14.7 °F 19.2 °F 83% 30.44 in 10.0 mi SSW 8.1 mph - N/A   Clear
3:16 AM 23.7 °F 14.7 °F 18.9 °F 82% 30.44 in 10.0 mi SSW 8.1 mph - N/A   Clear
3:36 AM 24.3 °F 15.4 °F 19.4 °F 82% 30.44 in 10.0 mi SSW 8.1 mph - N/A   Scattered Clouds
3:55 AM 26.4 °F 18.0 °F 21.0 °F 80% 30.43 in 10.0 mi South 8.1 mph - N/A   Scattered Clouds
4:16 AM 28.0 °F 19.3 °F 22.1 °F 78% 30.43 in 10.0 mi South 9.2 mph - N/A   Overcast
4:36 AM 28.4 °F 20.4 °F 22.5 °F 78% 30.43 in 10.0 mi SSW 8.1 mph - N/A   Overcast
4:56 AM 28.0 °F 20.8 °F 22.6 °F 80% 30.43 in 10.0 mi South 6.9 mph - N/A   Overcast
5:16 AM 28.8 °F 21.7 °F 23.4 °F 80% 30.43 in 10.0 mi SSW 6.9 mph - N/A   Overcast
5:35 AM 28.9 °F 21.9 °F 23.7 °F 81% 30.43 in 10.0 mi SSW 6.9 mph - N/A   Overcast
5:56 AM 29.1 °F 23.0 °F 24.4 °F 83% 30.43 in 10.0 mi SSW 5.8 mph - N/A   Overcast
6:50 AM 30.2 °F 23.4 °F 26.6 °F 86% 30.43 in 10.0 mi SSW 6.9 mph - N/A   Overcast
7:55 AM 32.0 °F 24.8 °F 30.2 °F 93% 30.43 in 7.0 mi SW 8.1 mph - N/A   Overcast
8:50 AM 33.8 °F 26.4 °F 30.2 °F 87% 30.44 in 3.0 mi SW 9.2 mph - N/A   Overcast
9:55 AM 33.8 °F 25.3 °F 30.2 °F 87% 30.44 in 2.5 mi SSW 11.5 mph - N/A   Overcast
10:50 AM 33.8 °F 24.8 °F 32.0 °F 93% 30.44 in 3.0 mi SSW 12.7 mph - N/A   Overcast
11:50 AM 35.6 °F 28.0 °F 32.0 °F 87% 30.43 in 5.0 mi SSW 10.4 mph - N/A   Overcast
12:30 PM 39.2 °F 32.5 °F 32.0 °F 75% 30.41 in 10.0 mi SSW 10.4 mph - N/A   Clear
12:55 PM 42.8 °F 35.8 °F 32.0 °F 66% 30.40 in 10.0 mi SSW 13.8 mph - N/A   Clear
1:50 PM 44.6 °F 37.2 °F 32.0 °F 61% 30.39 in 10.0 mi South 17.3 mph - N/A   Clear
2:50 PM 46.4 °F 39.8 °F 32.0 °F 57% 30.38 in 10.0 mi SSW 16.1 mph - N/A   Clear
3:55 PM 46.4 °F 40.4 °F 32.0 °F 57% 30.38 in 10.0 mi SSW 13.8 mph - N/A   Clear
4:55 PM 42.8 °F 38.0 °F 32.0 °F 66% 30.38 in 10.0 mi South 8.1 mph - N/A   Clear
5:50 PM 39.2 °F 32.5 °F 33.8 °F 81% 30.38 in 10.0 mi South 10.4 mph - N/A   Clear
6:55 PM 39.2 °F 32.0 °F 32.0 °F 75% 30.39 in 7.0 mi SSW 11.5 mph - N/A   Clear
7:50 PM 37.4 °F 30.8 °F 32.0 °F 81% 30.39 in 5.0 mi SSW 9.2 mph - N/A   Haze
8:50 PM 35.6 °F 28.6 °F 32.0 °F 87% 30.39 in 5.0 mi SSW 9.2 mph - N/A   Clear
9:50 PM 33.8 °F 27.0 °F 30.2 °F 87% 30.39 in 4.0 mi SSW 8.1 mph - N/A   Clear
10:15 PM 33.3 °F 25.1 °F 30.9 °F 91% 30.39 in 3.0 mi SSW 10.4 mph - N/A   Clear
10:36 PM 33.1 °F 25.5 °F 30.9 °F 92% 30.39 in 3.0 mi SSW 9.2 mph - N/A   Clear
10:56 PM 32.9 °F 24.7 °F 30.9 °F 92% 30.38 in 3.0 mi SSW 10.4 mph - N/A   Clear
11:15 PM 33.1 °F 24.9 °F 31.1 °F 92% 30.38 in 3.0 mi SSW 10.4 mph - N/A   Clear
11:36 PM 33.3 °F 24.6 °F 31.1 °F 92% 30.39 in 2.5 mi SSW 11.5 mph - N/A   Clear
11:56 PM 33.4 °F 25.9 °F 31.5 °F 92% 30.39 in 3.0 mi SSW 9.2 mph - N/A   Clear